Location: Dompnac
(44.5644°N, 4.1026°E)
Time: 11:08:02
(UTC+00:00)

CSL-04 Rocket - Pass Details

Date: 19 September 2020
Orbit: 806 x 860 km, 98.9° (Epoch: 29 October)

Event Time Altitude Azimuth Distance (km) Brightness Sun altitude
Rises 18:08:20 0° 149° (SSE) 3,356 6.5 -4.8°
Reaches altitude 10° 18:10:42 10° 145° (SE) 2,435 5.7 -5.2°
Maximum altitude 18:15:56 53° 70° (ENE) 1,026 3.9 -6.1°
Drops below altitude 10° 18:21:16 10° 355° (N) 2,484 6.3 -7.1°
Sets 18:23:42 0° 350° (N) 3,431 7.1 -7.5°
